TimeCET,TemperatureF,Dew PointF,Humidity,Sea Level PressureIn,VisibilityMPH,Wind Direction,Wind SpeedMPH,Gust SpeedMPH,PrecipitationIn,Events,Conditions,WindDirDegrees,DateUTC
12:55 AM,12.2,3.2,67,29.59,-9999.0,NNW,17.3,-,N/A,,Clear,340,2012-12-10 23:55:00
1:00 AM,13,4,54,,31,NNW,17.3,,,,,340,2012-12-11 00:00:00
1:55 AM,12.2,-0.4,57,29.59,-9999.0,North,19.6,-,N/A,,Clear,350,2012-12-11 00:55:00
2:55 AM,12.2,1.4,62,29.59,-9999.0,North,26.5,-,N/A,,Clear,350,2012-12-11 01:55:00
3:55 AM,14.0,1.4,57,29.59,-9999.0,North,20.7,-,N/A,,Clear,350,2012-12-11 02:55:00
4:00 AM,13,2,48,,31,North,20.7,,,,,350,2012-12-11 03:00:00
4:55 AM,12.2,1.4,62,29.59,-9999.0,North,16.1,-,N/A,,Clear,360,2012-12-11 03:55:00
5:55 AM,14.0,3.2,62,29.59,-9999.0,North,15.0,-,N/A,,Clear,360,2012-12-11 04:55:00
6:55 AM,14.0,-0.4,53,29.59,-9999.0,North,11.5,-,N/A,,Clear,360,2012-12-11 05:55:00
7:00 AM,13,0,42,,37,North,11.5,,,,,0,2012-12-11 06:00:00
7:55 AM,14.0,3.2,62,29.62,6.2,NNW,11.5,-,N/A,,Partly Cloudy,340,2012-12-11 06:55:00
8:55 AM,12.2,3.2,67,29.62,6.2,NNE,5.8,-,N/A,,Partly Cloudy,30,2012-12-11 07:55:00
9:55 AM,14.0,5.0,67,29.65,6.2,NE,6.9,-,N/A,,Partly Cloudy,40,2012-12-11 08:55:00
10:00 AM,14,5,56,,47,NE,6.9,,,,Scattered Clouds,40,2012-12-11 09:00:00
10:55 AM,12.2,6.8,79,29.65,6.2,NNE,9.2,-,N/A,,Partly Cloudy,30,2012-12-11 09:55:00
11:55 AM,12.2,8.6,85,29.65,6.2,North,12.7,-,N/A,,Partly Cloudy,360,2012-12-11 10:55:00
12:55 PM,12.2,8.6,85,29.65,6.2,North,12.7,-,N/A,,Partly Cloudy,10,2012-12-11 11:55:00
1:00 PM,12,9,84,,47,North,12.7,,,,Scattered Clouds,10,2012-12-11 12:00:00
1:55 PM,12.2,5.0,73,29.65,6.2,North,15.0,-,N/A,,Partly Cloudy,360,2012-12-11 12:55:00
2:55 PM,12.2,1.4,62,29.65,6.2,North,23.0,-,N/A,,Partly Cloudy,360,2012-12-11 13:55:00
3:55 PM,10.4,1.4,67,29.68,6.2,North,23.0,35.7,N/A,,Partly Cloudy,360,2012-12-11 14:55:00
4:00 PM,11,1,50,,44,North,23.0,,,,Scattered Clouds,0,2012-12-11 15:00:00
4:55 PM,10.4,-2.2,57,29.68,-9999.0,North,28.8,-,N/A,,Clear,360,2012-12-11 15:55:00
5:55 PM,8.6,-2.2,62,29.71,-9999.0,North,28.8,-,N/A,,Clear,10,2012-12-11 16:55:00
6:55 PM,8.6,-2.2,62,29.71,-9999.0,North,27.6,40.3,N/A,,Clear,10,2012-12-11 17:55:00
7:00 PM,8,-3,48,,31,North,27.6,,,,,10,2012-12-11 18:00:00
7:55 PM,8.6,-2.2,62,29.71,-9999.0,North,19.6,32.2,N/A,,Clear,10,2012-12-11 18:55:00
8:55 PM,6.8,-4.0,61,29.74,-9999.0,North,17.3,28.8,N/A,,Clear,10,2012-12-11 19:55:00
9:55 PM,6.8,-4.0,61,29.74,-9999.0,North,19.6,-,N/A,,Clear,360,2012-12-11 20:55:00
10:00 PM,7,-3,48,,31,North,19.6,,,,,0,2012-12-11 21:00:00
10:55 PM,6.8,-4.0,61,29.74,-9999.0,North,19.6,-,N/A,,Clear,360,2012-12-11 21:55:00
11:55 PM,6.8,-4.0,61,29.74,-9999.0,North,17.3,-,N/A,,Clear,360,2012-12-11 22:55:00